Probability
0 0 1 0 0 0 0 0 0 0 0 0 0 0 0 0 0 0 0 0 0 0 0 0 0 0 0 0 0 0 0 0 0 0 0 0 0 0 0 0 0 0 0
0 1 1 0 0 0 0 0 0 0 0 0 0 0 0 0 0 0 0 0 0 0 0 0 0 0 0 0 0 0 0 0 0 0 0 0 0 0 0 0 0 0 0
1 2 1 0 0 0 0 0 0 0 0 0 0 0 0 0 0 0 0 0 0 0 0 0 0 0 0 0 0 0 0 0 0 0 0 0 0 0 0 0 0 0 0
3 3 2 1 0 0 0 0 0 0 0 0 0 0 0 0 0 0 0 0 0 0 0 0 0 0 0 0 0 0 0 0 0 0 0 0 0 0 0 0 0 0 0
4 4 3 1 0 0 0 0 0 0 0 0 0 0 0 0 0 0 0 0 0 0 0 0 0 0 0 0 0 0 0 0 0 0 0 0 0 0 0 0 0 0 0
4 3 1 1 0 0 0 0 0 0 0 0 0 0 0 0 0 0 0 0 0 0 0 0 0 0 0 0 0 0 0 0 0 0 0 0 0 0 0 0 0 0 0
1 1 0 0 0 0 0 0 0 0 0 0 0 0 0 0 0 0 0 0 0 0 0 0 0 0 0 0 0 0 0 0 0 0 0 0 0 0 0 0 0 0 0
0 0 0 0 0 0 0 0 0 0 0 0 0 0 0 0 0 0 0 0 0 0 0 0 0 0 0 0 0 0 0 0 0 0 0 0 0 0 0 0 0 0 0
0 0 0 0 0 0 0 0 0 0 0 0 0 0 0 0 0 0 0 0 0 0 0 0 0 0 0 0 0 0 0 0 0 0 0 0 0 0 0 0 0 0 0
0 0 0 0 0 0 0 0 0 0 0 0 0 0 0 0 0 0 0 0 0 0 0 0 0 0 0 0 0 0 0 0 0 0 0 0 0 0 0 0 0 0 0
0 0 0 0 0 0 0 0 0 0 0 0 0 0 0 0 0 0 0 0 0 0 0 0 0 0 0 0 0 0 0 0 0 0 0 0 0 0 0 0 0 0 0
0 0 0 0 0 0 0 0 0 0 0 0 0 0 0 0 0 0 0 0 0 0 0 0 0 0 0 0 0 0 0 0 0 0 0 0 0 0 0 0 0 0 0
0 0 0 0 0 0 0 0 0 0 0 0 0 0 0 0 0 0 0 0 0 0 0 0 0 0 0 0 0 0 0 0 0 0 0 0 0 0 0 0 0 0 0
0 0 0 0 0 0 0 0 0 0 0 0 0 0 0 0 0 0 0 0 0 0 0 0 0 0 0 0 0 0 0 0 0 0 0 0 0 0 0 0 0 0 0
0 0 0 0 0 0 0 0 0 0 0 0 0 0 0 0 0 0 0 0 0 0 0 0 0 0 0 0 0 0 0 0 0 0 0 0 0 0 0 0 0 0 0
0 0 0 0 0 0 0 0 0 0 0 0 0 0 0 0 0 0 0 0 0 0 0 0 0 0 0 0 0 0 0 0 0 0 0 0 0 0 0 0 0 0 0
0 0 0 0 0 0 0 0 0 0 0 0 0 0 0 0 0 0 0 0 0 0 0 0 0 0 0 0 0 0 0 0 0 0 0 0 0 0 0 0 0 0 0
0 0 0 0 0 0 0 0 0 0 0 0 0 0 0 0 0 0 0 0 0 0 0 0 0 0 0 0 0 0 0 0 0 0 0 0 0 0 0 0 0 0 0
0 0 0 0 0 0 0 0 0 0 0 0 0 0 0 0 0 0 0 0 0 0 0 0 0 0 0 0 0 0 0 0 0 0 0 0 0 0 0 0 0 0 0
0 0 0 0 0 0 0 0 0 0 0 0 0 0 0 0 0 0 0 0 0 0 0 0 0 0 0 0 0 0 0 0 0 0 0 0 0 0 0 0 0 0 0
0 0 0 0 0 0 0 0 0 0 0 0 0 0 0 0 0 0 0 0 0 0 0 0 0 0 0 0 0 0 0 0 0 0 0 0 0 0 0 0 0 0 0
0 0 0 0 0 0 0 0 0 0 0 0 0 0 0 0 0 0 0 0 0 0 0 0 0 0 0 0 0 0 0 0 0 0 0 0 0 0 0 0 0 0 0
0 0 0 0 0 0 0 0 0 0 0 0 0 0 0 0 0 0 0 0 0 0 0 0 0 0 0 0 0 0 0 0 0 0 0 0 0 0 0 0 0 0 0
0 0 0 0 0 0 0 0 0 0 0 0 0 0 0 0 0 0 0 0 0 0 0 0 0 0 0 0 0 0 0 0 0 0 0 0 0 0 0 0 0 0 0
0 0 0 0 0 0 0 0 0 0 0 0 0 0 0 0 0 0 0 0 0 0 0 0 0 0 0 0 0 0 0 0 0 0 0 0 0 0 0 0 0 0 0
0 0 0 0 0 0 0 0 0 0 0 0 0 0 0 0 0 0 0 0 0 0 0 0 0 0 0 0 0 0 0 0 0 0 0 0 0 0 0 0 0 0 0
Wind_Speed
9 8 7 7 6 6 5 6 5 5 5 5 5 4 4 4 4 3 4 3 4 4 3 4 5 4 3 3 3 3 4 4 5 4 3 3 4 5 5 4 4 4 4
9 8 8 7 7 7 7 7 6 6 6 6 5 5 5 5 4 4 5 4 5 5 5 5 6 4 5 4 3 4 4 5 5 6 3 3 4 4 4 5 4 4 4
9 9 8 7 8 8 8 7 7 7 6 6 5 6 6 5 5 5 5 5 6 6 6 6 6 5 6 4 5 5 4 5 5 5 5 3 3 3 3 4 4 4 4
9 9 9 10 10 9 8 7 7 7 7 7 7 7 7 6 6 6 6 6 6 6 6 7 7 7 7 7 5 6 5 5 5 5 5 4 4 4 3 4 4 3 4
10 10 11 10 8 8 7 8 7 7 8 7 7 7 7 6 6 7 7 7 7 7 7 7 7 9 10 8 6 6 6 5 5 5 5 4 4 4 4 3 4 4 4
11 12 9 8 8 8 8 8 7 8 7 7 8 8 8 7 9 11 9 7 7 7 8 7 7 9 10 11 12 11 9 8 7 6 5 6 7 6 4 4 4 3 4
9 8 8 8 9 9 8 8 8 8 7 8 8 8 9 10 12 12 12 8 8 8 8 8 7 7 8 7 8 10 10 12 13 9 9 10 8 7 5 5 5 6 6
8 7 7 8 8 7 7 8 8 7 7 7 8 9 9 10 13 14 13 10 9 10 10 10 9 9 8 8 7 8 8 9 10 10 10 10 10 8 7 7 6 6 7
7 8 8 8 8 8 9 9 8 6 7 7 7 9 10 11 13 14 12 7 8 11 10 10 11 11 12 11 9 9 9 9 10 12 13 12 12 11 8 5 5 5 7
6 5 5 6 7 8 8 8 6 6 8 8 8 9 10 11 12 14 13 7 8 9 8 9 13 14 14 12 10 9 10 10 8 6 7 8 9 9 10 10 8 8 7
1 2 3 4 6 6 6 5 5 6 6 7 8 8 9 11 12 15 14 9 9 9 8 8 9 14 16 15 13 10 13 10 7 7 6 7 7 6 7 8 9 9 9
1 1 1 2 3 3 4 4 4 5 6 7 7 8 7 8 11 12 15 16 13 10 10 9 9 13 14 14 12 13 14 10 6 6 7 7 8 8 7 7 9 10 10
3 2 2 1 1 1 2 3 3 3 4 5 5 7 7 6 8 14 15 16 17 13 11 13 13 13 12 11 14 14 11 7 7 7 8 9 8 8 7 5 7 8 10
4 3 3 2 2 2 1 1 2 3 4 5 6 7 7 6 6 6 7 8 11 12 11 11 13 12 10 10 9 9 8 8 8 9 8 8 7 6 7 6 6 6 6
4 3 3 2 2 2 2 2 3 4 5 5 6 6 7 8 9 11 8 7 7 7 6 5 5 6 7 8 7 7 7 7 8 8 8 8 7 7 7 6 6 6 6
4 4 3 3 2 2 3 4 5 6 9 10 11 10 8 12 15 16 15 15 14 11 6 7 8 9 9 9 8 7 7 8 8 8 7 8 7 7 7 6 6 7 8
3 3 3 3 3 3 3 4 6 7 8 10 11 12 13 14 15 15 15 13 12 8 8 9 9 9 9 8 8 8 8 7 7 7 7 8 7 7 7 7 7 7 8
3 3 3 3 3 4 4 4 5 6 8 7 8 11 13 14 14 13 11 6 5 6 8 9 9 9 8 8 8 7 7 7 6 7 7 7 7 7 7 8 8 9 8
3 3 3 4 4 4 5 5 5 6 7 8 8 9 11 11 11 10 6 5 7 7 8 8 8 8 7 7 7 7 7 7 7 6 6 7 7 7 8 8 8 10 9
3 7 6 4 5 5 5 6 6 7 7 7 8 8 8 7 7 7 5 5 7 7 7 8 7 7 7 7 7 7 7 7 7 7 7 7 7 7 9 10 8 8 8
4 6 9 6 5 6 6 6 7 7 7 8 8 9 10 8 8 9 8 7 7 7 7 7 7 7 7 6 6 7 8 7 6 6 6 7 7 7 7 8 8 8 8
4 5 5 6 6 6 7 7 7 8 8 9 8 8 10 7 7 7 7 8 8 7 7 7 7 6 6 6 6 6 7 7 6 6 6 6 6 7 7 7 8 7 8
4 5 6 6 6 8 8 7 7 8 8 8 9 8 8 7 7 8 8 8 8 7 6 6 6 5 5 5 5 5 6 6 5 5 6 6 6 6 6 7 9 8 8
5 6 7 7 7 7 8 8 8 8 8 8 8 7 8 8 8 9 9 8 7 7 6 5 5 6 7 5 3 4 4 4 4 5 7 7 7 6 7 7 8 9 9
5 6 7 7 7 8 8 8 8 8 8 8 8 8 8 8 8 8 8 8 9 8 7 5 3 4 5 5 4 3 3 3 4 4 5 6 8 8 8 9 8 9 9
6 7 6 6 7 7 7 8 8 8 8 8 8 8 8 8 8 8 8 7 7 7 6 5 5 5 5 3 3 2 2 3 4 4 4 5 7 8 8 8 10 9 9
Wind_Direction
186 187 186 188 189 184 191 200 200 201 201 203 209 213 222 229 224 217 233 237 239 247 238 230 242 235 234 231 217 214 214 209 240 264 254 268 276 285 303 303 295 292 288
186 184 190 188 184 190 203 208 201 205 207 208 209 216 226 230 225 223 237 239 237 248 248 239 248 240 236 235 226 227 225 217 229 260 267 262 260 273 283 292 295 294 286
178 183 189 190 191 199 207 207 203 206 209 210 208 218 227 231 230 229 231 239 240 244 245 241 247 239 245 241 234 237 238 233 223 242 263 257 263 270 282 284 286 287 286
179 185 195 200 200 203 204 204 206 207 208 212 215 221 227 230 232 235 233 237 242 244 242 240 242 236 241 243 241 240 240 241 234 239 256 261 262 264 258 269 282 276 286
182 192 204 203 199 200 204 207 209 210 215 216 218 226 229 229 232 229 231 235 240 247 247 243 243 242 241 238 237 237 233 238 241 243 254 258 258 253 251 250 268 282 278
189 201 202 194 196 204 209 209 210 215 217 215 220 226 229 232 233 229 224 231 236 240 248 251 251 254 254 252 248 244 230 231 239 241 249 253 259 253 250 245 252 269 278
197 201 195 195 204 210 211 210 215 218 216 220 226 227 234 238 237 238 234 228 234 238 241 248 253 250 243 248 256 260 252 240 231 234 246 252 256 248 238 245 239 241 252
200 206 201 199 210 210 207 216 220 215 215 223 229 229 235 243 239 238 238 233 237 241 240 240 243 251 246 237 247 256 258 254 243 238 240 247 249 249 237 246 255 257 260
206 212 208 203 208 207 212 220 218 214 221 222 226 226 232 244 240 237 233 231 238 245 244 239 237 245 246 233 235 249 261 264 254 241 237 243 246 245 235 237 240 244 261
220 221 209 199 206 214 219 221 216 216 228 229 235 233 233 243 243 237 227 225 238 247 247 242 235 235 240 231 227 235 248 257 258 260 251 252 253 253 239 231 235 242 253
206 190 191 200 210 218 222 222 220 223 232 235 243 244 239 242 247 242 230 221 232 241 245 245 239 229 232 233 225 228 236 243 250 252 261 264 262 256 248 235 228 230 238
88 127 209 217 229 225 220 233 230 229 239 248 251 258 253 247 245 247 237 227 227 234 241 243 239 231 228 230 227 229 235 239 245 247 254 259 260 258 254 244 233 231 236
48 38 19 15 322 281 237 244 249 237 244 254 254 261 265 257 250 245 245 241 232 231 242 240 237 233 230 233 233 231 230 229 230 239 248 253 253 255 257 254 246 238 243
49 32 29 27 1 334 306 272 257 254 255 260 261 264 269 270 266 259 252 250 243 236 242 246 242 237 232 236 237 232 225 222 224 237 248 254 255 251 249 245 250 244 248
48 35 25 16 351 334 319 284 269 256 251 258 264 263 270 275 270 265 263 261 252 244 236 235 232 227 227 229 231 232 228 222 227 235 241 249 250 249 250 240 237 237 238
36 19 7 354 343 335 327 319 291 275 285 277 266 264 267 263 274 278 274 266 259 249 226 234 235 231 230 231 230 232 228 227 228 229 232 238 244 246 250 243 234 237 244
33 3 347 343 337 331 326 320 314 310 297 289 282 279 268 272 277 279 278 275 265 227 221 235 236 233 230 228 227 229 232 230 222 222 228 233 237 241 245 248 242 240 244
3 349 341 324 318 313 308 302 298 301 308 306 300 294 291 288 287 286 284 278 259 219 228 236 238 235 231 229 227 228 234 233 224 223 227 231 232 235 241 244 243 241 244
337 324 317 310 306 302 300 300 299 298 297 298 302 303 300 298 293 288 271 245 256 251 241 241 243 242 237 232 232 229 228 230 229 225 228 230 232 233 238 242 244 244 243
316 318 322 311 308 308 306 304 304 303 302 302 301 303 309 310 305 303 284 263 261 261 254 247 244 242 240 238 236 232 230 231 231 230 233 233 232 233 240 244 245 245 242
314 316 321 318 310 306 305 303 302 301 301 300 300 302 305 303 299 297 295 284 272 266 260 254 249 242 236 234 233 232 231 232 230 231 236 238 237 237 240 243 247 246 246
312 310 313 311 310 309 306 304 304 303 303 303 304 306 307 302 299 298 296 293 287 276 265 258 253 244 236 233 229 228 230 232 232 233 238 242 243 244 244 244 245 243 243
322 320 319 315 313 310 309 309 308 306 306 306 306 307 309 307 303 302 302 300 296 291 278 260 256 253 245 237 230 224 230 235 237 237 241 245 246 248 249 249 249 248 245
332 327 323 319 317 315 314 312 311 310 310 310 311 310 310 310 310 310 309 307 304 299 290 276 267 265 257 247 234 230 235 244 250 247 248 250 252 253 253 254 254 250 249
339 333 328 324 322 321 319 318 316 316 315 316 316 315 315 314 312 311 312 313 313 309 307 301 292 283 276 264 255 254 249 247 252 259 256 254 255 255 255 256 255 255 252
342 338 334 330 328 327 324 322 322 323 320 319 318 316 317 317 317 318 318 319 320 318 315 311 310 307 299 288 287 294 274 261 254 252 254 255 254 254 254 254 256 253 254